IBE006 LPPT-LEZL

Flight info

Callsign IBE006
Flight time N/A
Altitude 27000
Route DUZOP MINTA N747 OSLEP
Aircraft B738/M-SDE2E3FGHIRWXY/LB1

Departure

Time 2026-05-08 07:20
Airport Lisbon Humberto Delgado Airport (LPPT)

Arrival

Time N/A
Airport Seville Airport (LEZL)
Time Latitude Longitude Altitude Speed Heading
2026-05-08 07:15 38.76982 -9.13085 386 ft 0 kts 79°
2026-05-08 07:17 38.76980 -9.13099 386 ft 2 kts 79°
2026-05-08 07:17 38.76976 -9.13122 386 ft 3 kts 79°
2026-05-08 07:18 38.76973 -9.13147 386 ft 3 kts 79°
2026-05-08 07:18 38.76969 -9.13173 386 ft 3 kts 79°
2026-05-08 07:18 38.76968 -9.13180 386 ft 1 kts 79°
2026-05-08 07:18 38.76955 -9.13126 386 ft 4 kts 145°
2026-05-08 07:19 38.76856 -9.13131 386 ft 30 kts 174°
2026-05-08 07:19 38.76800 -9.13221 386 ft 22 kts 332°
2026-05-08 07:19 38.77309 -9.13373 386 ft 127 kts 348°
2026-05-08 07:19 38.78458 -9.13677 632 ft 200 kts 348°
2026-05-08 07:20 38.79897 -9.13758 1924 ft 207 kts 11°
2026-05-08 07:20 38.81179 -9.12791 2988 ft 228 kts 46°
2026-05-08 07:20 38.81824 -9.10889 3907 ft 247 kts 81°
2026-05-08 07:20 38.81484 -9.08678 4863 ft 265 kts 115°
2026-05-08 07:21 38.80225 -9.06919 5913 ft 275 kts 145°
2026-05-08 07:21 38.78455 -9.06013 6995 ft 275 kts 174°
2026-05-08 07:21 38.76575 -9.06176 8158 ft 271 kts 199°
2026-05-08 07:21 38.74963 -9.07349 9275 ft 268 kts 224°
2026-05-08 07:22 38.73930 -9.09301 10380 ft 268 kts 249°
2026-05-08 07:22 38.73624 -9.11720 11149 ft 287 kts 271°
2026-05-08 07:22 38.73905 -9.14304 11731 ft 309 kts 268°
2026-05-08 07:22 38.73137 -9.16929 12688 ft 321 kts 233°
2026-05-08 07:23 38.71260 -9.18418 14109 ft 325 kts 198°
2026-05-08 07:23 38.69028 -9.18174 15551 ft 332 kts 162°
2026-05-08 07:23 38.67206 -9.16340 16549 ft 352 kts 132°
2026-05-08 07:23 38.65680 -9.13974 18102 ft 337 kts 131°
2026-05-08 07:24 38.64111 -9.11588 18737 ft 359 kts 134°
2026-05-08 07:24 38.62353 -9.09192 19149 ft 382 kts 138°
2026-05-08 07:24 38.60307 -9.06966 19884 ft 392 kts 145°
2026-05-08 07:24 38.57995 -9.05023 20517 ft 403 kts 154°
2026-05-08 07:25 38.55403 -9.03552 21144 ft 412 kts 162°
2026-05-08 07:25 38.52683 -9.02346 21961 ft 415 kts 165°
2026-05-08 07:25 38.47153 -8.99935 23426 ft 425 kts 164°
2026-05-08 07:26 38.44337 -8.98701 24097 ft 430 kts 164°
2026-05-08 07:26 38.41498 -8.97457 24722 ft 434 kts 164°
2026-05-08 07:26 38.38633 -8.96202 25307 ft 438 kts 164°
2026-05-08 07:26 38.35735 -8.94934 25862 ft 441 kts 164°
2026-05-08 07:27 38.32821 -8.93660 26416 ft 444 kts 164°
2026-05-08 07:27 38.29902 -8.92384 26956 ft 444 kts 164°
2026-05-08 07:27 38.26986 -8.91112 26991 ft 442 kts 164°
2026-05-08 07:27 38.24077 -8.89843 26996 ft 441 kts 164°
2026-05-08 07:28 38.21173 -8.88578 26997 ft 442 kts 164°
2026-05-08 07:28 38.18260 -8.87309 26996 ft 442 kts 164°
2026-05-08 07:28 38.15349 -8.86043 26996 ft 442 kts 164°
2026-05-08 07:28 38.12442 -8.84780 26997 ft 442 kts 164°
2026-05-08 07:29 38.09537 -8.83518 26997 ft 442 kts 164°
2026-05-08 07:29 38.07608 -8.82681 26996 ft 442 kts 164°
2026-05-08 07:29 38.04699 -8.81419 26997 ft 442 kts 164°
2026-05-08 07:29 38.01784 -8.80156 26996 ft 442 kts 164°
2026-05-08 07:30 37.98880 -8.78899 26996 ft 442 kts 164°
2026-05-08 07:30 37.95969 -8.77640 26997 ft 442 kts 164°
2026-05-08 07:30 37.93053 -8.76379 26996 ft 442 kts 164°
2026-05-08 07:30 37.90147 -8.75124 26997 ft 442 kts 164°
2026-05-08 07:31 37.87231 -8.73866 26996 ft 442 kts 164°
2026-05-08 07:31 37.84321 -8.72612 26997 ft 442 kts 164°
2026-05-08 07:31 37.81412 -8.71359 26996 ft 442 kts 164°
2026-05-08 07:31 37.78508 -8.70109 26996 ft 441 kts 164°
2026-05-08 07:32 37.75603 -8.68859 26997 ft 441 kts 164°
2026-05-08 07:32 37.72694 -8.67609 26996 ft 441 kts 164°
2026-05-08 07:32 37.69810 -8.66263 26982 ft 444 kts 158°
2026-05-08 07:32 37.67233 -8.64087 27004 ft 450 kts 141°
2026-05-08 07:33 37.65175 -8.61103 26994 ft 454 kts 126°
2026-05-08 07:33 37.63677 -8.57582 27002 ft 456 kts 117°
2026-05-08 07:33 37.62292 -8.53983 26995 ft 456 kts 118°
2026-05-08 07:33 37.60821 -8.50437 26996 ft 456 kts 120°
2026-05-08 07:34 37.59333 -8.46915 26996 ft 456 kts 119°
2026-05-08 07:34 37.57844 -8.43383 26996 ft 456 kts 119°
2026-05-08 07:34 37.56359 -8.39858 26997 ft 456 kts 119°
2026-05-08 07:34 37.54871 -8.36328 26997 ft 456 kts 119°
2026-05-08 07:35 37.53381 -8.32799 26996 ft 456 kts 120°
2026-05-08 07:35 37.51895 -8.29282 26997 ft 456 kts 120°
2026-05-08 07:35 37.50400 -8.25749 26997 ft 456 kts 120°
2026-05-08 07:35 37.48890 -8.22184 26996 ft 456 kts 120°
2026-05-08 07:36 37.47415 -8.18706 26997 ft 456 kts 120°
2026-05-08 07:36 37.45921 -8.15185 26996 ft 456 kts 120°
2026-05-08 07:36 37.44427 -8.11668 26996 ft 456 kts 120°
2026-05-08 07:36 37.42930 -8.08151 26997 ft 456 kts 120°
2026-05-08 07:37 37.41434 -8.04638 26996 ft 456 kts 120°
2026-05-08 07:37 37.39919 -8.01083 26997 ft 456 kts 120°
2026-05-08 07:37 37.38440 -7.97618 26997 ft 456 kts 120°
2026-05-08 07:37 37.36938 -7.94103 26997 ft 456 kts 120°
2026-05-08 07:38 37.35436 -7.90593 26997 ft 456 kts 120°
2026-05-08 07:38 37.33917 -7.87044 26996 ft 455 kts 120°
2026-05-08 07:38 37.32416 -7.83542 26996 ft 455 kts 120°
2026-05-08 07:38 37.30912 -7.80038 26997 ft 455 kts 120°
2026-05-08 07:39 37.29409 -7.76540 26997 ft 455 kts 120°
2026-05-08 07:39 37.27926 -7.73092 26982 ft 439 kts 120°
2026-05-08 07:39 37.26502 -7.69785 26989 ft 426 kts 120°
2026-05-08 07:39 37.25099 -7.66529 26995 ft 423 kts 120°
2026-05-08 07:40 37.23718 -7.63327 26996 ft 422 kts 120°
2026-05-08 07:40 37.22301 -7.60046 26997 ft 423 kts 120°
2026-05-08 07:40 37.20917 -7.56843 26997 ft 423 kts 120°
2026-05-08 07:40 37.19513 -7.53600 26997 ft 423 kts 120°
2026-05-08 07:41 37.18109 -7.50358 26996 ft 423 kts 120°
2026-05-08 07:41 37.16687 -7.47077 26996 ft 423 kts 120°
2026-05-08 07:41 37.15298 -7.43877 26997 ft 423 kts 120°
2026-05-08 07:41 37.13970 -7.40586 26980 ft 425 kts 112°
2026-05-08 07:42 37.13313 -7.36981 26733 ft 427 kts 96°
2026-05-08 07:42 37.13514 -7.33289 25988 ft 427 kts 77°
2026-05-08 07:42 37.14405 -7.29693 25328 ft 426 kts 71°
2026-05-08 07:42 37.15218 -7.26168 24606 ft 427 kts 75°
2026-05-08 07:43 37.15922 -7.22503 23869 ft 428 kts 76°
2026-05-08 07:43 37.16596 -7.18916 23148 ft 428 kts 76°
2026-05-08 07:43 37.17310 -7.15291 22418 ft 428 kts 75°
2026-05-08 07:43 37.18024 -7.11679 21688 ft 428 kts 75°
2026-05-08 07:44 37.18737 -7.08061 20958 ft 427 kts 75°
2026-05-08 07:44 37.19447 -7.04450 20227 ft 426 kts 75°
2026-05-08 07:44 37.20148 -7.00877 19505 ft 424 kts 75°
2026-05-08 07:44 37.20857 -6.97259 18768 ft 423 kts 75°
2026-05-08 07:45 37.21556 -6.93688 18037 ft 421 kts 75°
2026-05-08 07:45 37.22251 -6.90131 17314 ft 419 kts 75°
2026-05-08 07:45 37.22942 -6.86588 16574 ft 417 kts 75°
2026-05-08 07:45 37.23626 -6.83074 15848 ft 414 kts 75°
2026-05-08 07:46 37.24306 -6.79572 15110 ft 412 kts 75°
2026-05-08 07:46 37.24981 -6.76093 14382 ft 409 kts 75°
2026-05-08 07:46 37.25650 -6.72638 13647 ft 406 kts 75°
2026-05-08 07:46 37.26314 -6.69206 12916 ft 403 kts 76°
2026-05-08 07:47 37.26971 -6.65800 12183 ft 400 kts 76°
2026-05-08 07:47 37.27623 -6.62418 11448 ft 397 kts 76°
2026-05-08 07:47 37.28268 -6.59062 10714 ft 394 kts 76°
2026-05-08 07:47 37.28907 -6.55735 9985 ft 390 kts 76°
2026-05-08 07:48 37.29539 -6.52439 9251 ft 387 kts 76°
2026-05-08 07:48 37.30160 -6.49198 8655 ft 380 kts 76°
2026-05-08 07:48 37.30764 -6.46039 8443 ft 362 kts 76°
2026-05-08 07:48 37.31338 -6.43031 8251 ft 344 kts 76°
2026-05-08 07:49 37.31881 -6.40181 8092 ft 327 kts 76°
2026-05-08 07:49 37.32373 -6.37463 7990 ft 312 kts 78°
2026-05-08 07:49 37.32708 -6.34841 7918 ft 298 kts 81°
2026-05-08 07:49 37.33034 -6.32316 7784 ft 288 kts 80°
2026-05-08 07:50 37.33370 -6.29854 7553 ft 284 kts 79°
2026-05-08 07:50 37.33704 -6.27423 7265 ft 282 kts 79°
2026-05-08 07:50 37.34039 -6.24998 6974 ft 281 kts 79°
2026-05-08 07:50 37.34372 -6.22584 6688 ft 280 kts 79°
2026-05-08 07:51 37.34705 -6.20186 6418 ft 278 kts 79°
2026-05-08 07:51 37.35033 -6.17804 6179 ft 275 kts 78°
2026-05-08 07:51 37.35357 -6.15453 5942 ft 272 kts 78°
2026-05-08 07:51 37.35676 -6.13126 5708 ft 269 kts 78°
2026-05-08 07:52 37.35993 -6.10820 5477 ft 266 kts 78°
2026-05-08 07:52 37.36304 -6.08544 5248 ft 263 kts 78°
2026-05-08 07:52 37.36613 -6.06290 5020 ft 260 kts 78°
2026-05-08 07:52 37.36918 -6.04056 4792 ft 258 kts 78°
2026-05-08 07:53 37.37219 -6.01848 4564 ft 256 kts 79°
2026-05-08 07:53 37.37518 -5.99651 4335 ft 254 kts 79°
2026-05-08 07:53 37.37813 -5.97475 4060 ft 252 kts 79°
2026-05-08 07:53 37.38104 -5.95336 3963 ft 244 kts 79°
2026-05-08 07:54 37.38389 -5.93238 3711 ft 245 kts 79°